| time (UTC) | temp F | wind direction | speed MPH | gust MPH | rain 1hr in | rain 24hr in | rain mn in | humidity % | barometer mb |
| 20260507044611 | 55 | 221 | 3.0 | 10.0 | 0.00 | 0.00 | 0.00 | 69 | 1008.9 |
| 20260507043111 | 55 | 236 | 3.0 | 11.0 | 0.00 | 0.00 | 0.00 | 70 | 1008.9 |
| 20260507041611 | 55 | 14 | 4.0 | 14.0 | 0.00 | 0.00 | 0.00 | 69 | 1008.7 |
| 20260507040111 | 55 | 329 | 4.0 | 9.0 | 0.00 | 0.00 | 0.00 | 70 | 1008.5 |
| 20260507034611 | 55 | 10 | 3.0 | 12.0 | 0.00 | 0.00 | 0.00 | 70 | 1008.5 |
| 20260507033111 | 55 | 148 | 3.0 | 8.0 | 0.00 | 0.00 | 0.00 | 69 | 1008.5 |
| 20260507031611 | 55 | 84 | 4.0 | 8.0 | 0.00 | 0.00 | 0.00 | 70 | 1008.4 |
| 20260507030110 | 55 | 355 | 3.0 | 15.0 | 0.00 | 0.00 | 0.00 | 69 | 1008.4 |
| 20260507024610 | 56 | 24 | 2.0 | 7.0 | 0.00 | 0.00 | 0.00 | 69 | 1008.1 |
| 20260507023110 | 56 | 307 | 3.0 | 9.0 | 0.00 | 0.00 | 0.00 | 69 | 1008.0 |
| 20260507021610 | 56 | 92 | 3.0 | 8.0 | 0.00 | 0.00 | 0.00 | 71 | 1008.0 |
| 20260507020110 | 56 | 179 | 2.0 | 7.0 | 0.00 | 0.00 | 0.00 | 72 | 1007.9 |
| 20260507014610 | 56 | 355 | 3.0 | 9.0 | 0.00 | 0.00 | 0.00 | 73 | 1007.9 |
| 20260507013110 | 56 | 193 | 2.0 | 9.0 | 0.00 | 0.00 | 0.00 | 73 | 1007.8 |
| 20260507011609 | 57 | 269 | 3.0 | 12.0 | 0.00 | 0.00 | 0.00 | 72 | 1007.7 |
| 20260507010109 | 57 | 355 | 3.0 | 8.0 | 0.00 | 0.00 | 0.00 | 72 | 1007.6 |
| 20260507004609 | 57 | 331 | 3.0 | 8.0 | 0.00 | 0.00 | 0.00 | 71 | 1007.4 |
| 20260507003114 | 58 | 69 | 2.0 | 9.0 | 0.00 | 0.00 | 0.00 | 71 | 1007.3 |
| 20260507001614 | 58 | 39 | 3.0 | 11.0 | 0.00 | 0.00 | 0.00 | 71 | 1007.3 |
| 20260507000114 | 58 | 342 | 2.0 | 9.0 | 0.00 | 0.00 | 0.00 | 71 | 1007.1 |
| 20260506234613 | 59 | 114 | 3.0 | 9.0 | 0.00 | 0.00 | 0.00 | 72 | 1006.9 |
| 20260506233114 | 59 | 30 | 3.0 | 13.0 | 0.00 | 0.00 | 0.00 | 74 | 1006.9 |
| 20260506231613 | 59 | 67 | 4.0 | 12.0 | 0.00 | 0.00 | 0.00 | 74 | 1006.7 |
| 20260506230113 | 59 | 259 | 3.0 | 11.0 | 0.00 | 0.00 | 0.00 | 73 | 1006.5 |
| 20260506224613 | 60 | 360 | 3.0 | 11.0 | 0.00 | 0.00 | 0.00 | 70 | 1006.3 |
| 20260506223113 | 60 | 228 | 3.0 | 8.0 | 0.00 | 0.00 | 0.00 | 67 | 1006.2 |
| 20260506221614 | 60 | 5 | 3.0 | 11.0 | 0.00 | 0.00 | 0.00 | 67 | 1005.6 |
| 20260506220113 | 60 | 94 | 2.0 | 7.0 | 0.00 | 0.00 | 0.00 | 67 | 1005.3 |
| 20260506214613 | 60 | 153 | 0.0 | 1.0 | 0.00 | 0.00 | 0.00 | 69 | 1005.0 |
| 20260506213113 | 61 | 200 | 0.0 | 2.0 | 0.00 | 0.00 | 0.00 | 67 | 1004.7 |
| 20260506211612 | 61 | 140 | 1.0 | 5.0 | 0.00 | 0.00 | 0.00 | 65 | 1004.5 |
| 20260506210112 | 62 | 119 | 1.0 | 9.0 | 0.00 | 0.00 | 0.00 | 64 | 1004.3 |
| 20260506204612 | 63 | 124 | 3.0 | 11.0 | 0.00 | 0.00 | 0.00 | 64 | 1004.1 |
| 20260506203112 | 63 | 181 | 4.0 | 10.0 | 0.00 | 0.00 | 0.00 | 62 | 1004.0 |
| 20260506201612 | 63 | 118 | 5.0 | 11.0 | 0.00 | 0.00 | 0.00 | 62 | 1003.8 |
| 20260506200112 | 64 | 187 | 4.0 | 11.0 | 0.00 | 0.00 | 0.00 | 61 | 1003.7 |
| 20260506194612 | 64 | 81 | 4.0 | 13.0 | 0.00 | 0.00 | 0.00 | 61 | 1003.6 |
| 20260506193113 | 65 | 115 | 5.0 | 16.0 | 0.00 | 0.00 | 0.00 | 60 | 1003.3 |
| 20260506191611 | 65 | 94 | 5.0 | 14.0 | 0.00 | 0.00 | 0.00 | 59 | 1003.3 |
| 20260506190111 | 65 | 123 | 4.0 | 13.0 | 0.00 | 0.00 | 0.00 | 58 | 1003.1 |
| 20260506184611 | 66 | 123 | 5.0 | 15.0 | 0.00 | 0.00 | 0.00 | 57 | 1003.0 |
| 20260506183111 | 66 | 219 | 6.0 | 17.0 | 0.00 | 0.00 | 0.00 | 56 | 1002.7 |
| 20260506181611 | 67 | 85 | 5.0 | 17.0 | 0.00 | 0.00 | 0.00 | 55 | 1002.6 |
| 20260506180112 | 68 | 102 | 5.0 | 16.0 | 0.00 | 0.00 | 0.00 | 54 | 1002.5 |
| 20260506174610 | 68 | 130 | 5.0 | 22.0 | 0.00 | 0.00 | 0.00 | 53 | 1002.5 |
| 20260506173110 | 69 | 96 | 6.0 | 16.0 | 0.00 | 0.00 | 0.00 | 53 | 1002.4 |
| 20260506171615 | 70 | 74 | 6.0 | 14.0 | 0.00 | 0.00 | 0.00 | 51 | 1002.4 |
| 20260506170114 | 70 | 32 | 6.0 | 15.0 | 0.00 | 0.00 | 0.00 | 50 | 1002.4 |
| 20260506164616 | 71 | 122 | 5.0 | 14.0 | 0.00 | 0.00 | 0.00 | 50 | 1002.4 |
| 20260506163114 | 71 | 103 | 7.0 | 18.0 | 0.00 | 0.00 | 0.00 | 49 | 1002.7 |
| 20260506161615 | 71 | 174 | 8.0 | 17.0 | 0.00 | 0.00 | 0.00 | 49 | 1002.7 |
| 20260506160114 | 72 | 98 | 7.0 | 18.0 | 0.00 | 0.00 | 0.00 | 49 | 1002.9 |
| 20260506154614 | 73 | 161 | 6.0 | 17.0 | 0.00 | 0.00 | 0.00 | 47 | 1002.8 |
| 20260506153113 | 74 | 105 | 6.0 | 17.0 | 0.00 | 0.00 | 0.00 | 46 | 1002.8 |
| 20260506151613 | 74 | 101 | 8.0 | 21.0 | 0.00 | 0.00 | 0.00 | 44 | 1002.9 |
| 20260506150113 | 75 | 181 | 6.0 | 16.0 | 0.00 | 0.00 | 0.00 | 43 | 1002.8 |
| 20260506144613 | 75 | 165 | 8.0 | 20.0 | 0.00 | 0.00 | 0.00 | 42 | 1002.8 |
| 20260506143113 | 76 | 107 | 7.0 | 16.0 | 0.00 | 0.00 | 0.00 | 41 | 1002.9 |
| 20260506141614 | 77 | 149 | 8.0 | 18.0 | 0.00 | 0.00 | 0.00 | 41 | 1002.9 |
| 20260506140113 | 77 | 181 | 7.0 | 15.0 | 0.00 | 0.00 | 0.00 | 41 | 1003.0 |
| 20260506134613 | 77 | 107 | 8.0 | 19.0 | 0.00 | 0.00 | 0.00 | 40 | 1003.5 |
| 20260506133112 | 77 | 141 | 8.0 | 23.0 | 0.00 | 0.00 | 0.00 | 40 | 1003.5 |
| 20260506131614 | 77 | 135 | 7.0 | 18.0 | 0.00 | 0.00 | 0.00 | 39 | 1003.8 |
| 20260506130112 | 74 | 119 | 7.0 | 17.0 | 0.00 | 0.00 | 0.00 | 44 | 1003.9 |
| 20260506124612 | 73 | 148 | 8.0 | 18.0 | 0.00 | 0.00 | 0.00 | 43 | 1004.0 |
| 20260506123112 | 73 | 96 | 5.0 | 15.0 | 0.00 | 0.00 | 0.00 | 45 | 1004.4 |
| 20260506121612 | 72 | 103 | 7.0 | 21.0 | 0.00 | 0.00 | 0.00 | 46 | 1004.6 |
| 20260506120111 | 73 | 155 | 7.0 | 18.0 | 0.00 | 0.00 | 0.00 | 45 | 1004.7 |
| 20260506114611 | 73 | 116 | 6.0 | 17.0 | 0.00 | 0.00 | 0.00 | 46 | 1004.8 |
| 20260506113111 | 76 | 140 | 7.0 | 17.0 | 0.00 | 0.00 | 0.00 | 45 | 1005.1 |
| 20260506111611 | 75 | 82 | 8.0 | 22.0 | 0.00 | 0.00 | 0.00 | 49 | 1005.2 |
| 20260506110111 | 75 | 148 | 7.0 | 21.0 | 0.00 | 0.00 | 0.00 | 45 | 1005.4 |
| 20260506104611 | 75 | 146 | 8.0 | 22.0 | 0.00 | 0.00 | 0.00 | 44 | 1005.9 |
| 20260506103110 | 75 | 94 | 8.0 | 17.0 | 0.00 | 0.00 | 0.00 | 47 | 1005.9 |
| 20260506101611 | 73 | 121 | 7.0 | 15.0 | 0.00 | 0.00 | 0.00 | 47 | 1006.0 |
| 20260506100110 | 75 | 94 | 6.0 | 16.0 | 0.00 | 0.00 | 0.00 | 47 | 1006.1 |
| 20260506094610 | 75 | 120 | 6.0 | 17.0 | 0.00 | 0.00 | 0.00 | 45 | 1006.2 |
| 20260506093110 | 74 | 101 | 6.0 | 15.0 | 0.00 | 0.00 | 0.00 | 46 | 1006.4 |
| 20260506091610 | 71 | 88 | 7.0 | 14.0 | 0.00 | 0.00 | 0.00 | 52 | 1006.6 |
| 20260506090110 | 73 | 89 | 6.0 | 13.0 | 0.00 | 0.00 | 0.00 | 50 | 1006.5 |
| 20260506084616 | 74 | 126 | 5.0 | 13.0 | 0.00 | 0.00 | 0.00 | 48 | 1006.5 |
| 20260506083114 | 73 | 57 | 4.0 | 10.0 | 0.00 | 0.00 | 0.00 | 46 | 1006.6 |
| 20260506081616 | 73 | 107 | 4.0 | 9.0 | 0.00 | 0.00 | 0.00 | 47 | 1006.8 |
| 20260506080115 | 72 | 92 | 3.0 | 8.0 | 0.00 | 0.00 | 0.00 | 50 | 1006.8 |
| 20260506073114 | 70 | 110 | 2.0 | 8.0 | 0.00 | 0.00 | 0.00 | 52 | 1006.9 |
| 20260506071615 | 70 | 71 | 2.0 | 6.0 | 0.00 | 0.00 | 0.00 | 52 | 1007.0 |
| 20260506070114 | 68 | 184 | 2.0 | 5.0 | 0.00 | 0.00 | 0.00 | 56 | 1007.1 |
| 20260506061613 | 63 | 129 | 1.0 | 6.0 | 0.00 | 0.00 | 0.00 | 65 | 1007.2 |
| 20260506060113 | 62 | 78 | 1.0 | 3.0 | 0.00 | 0.00 | 0.00 | 67 | 1007.2 |
| 20260506050114 | 60 | 77 | 1.0 | 5.0 | 0.00 | 0.00 | 0.00 | 73 | 1007.3 |